[TLELIST] Archives

 

[list_settings.list_name] Current TLEs

February 16th 2011 PST

HST 1 20580U 90037B 11044.60022698 .00000634 00000-0 35542-4 0 7137 2 20580 028.4699 103.6369 0003389 241.1080 118.9215 15.01160317941064 ISS (ZARYA) 1 25544U 98067A 11046.34816256 .00016740 00000-0 12733-3 0 8285 2 25544 051.6450 065.7101 0004375 315.4947 175.3841 15.72423976701727 CXO 1 25867U 99040B 11044.66666667 -.00000496 00000-0 00000+0 0 5714 2 25867 068.5080 039.8278 8488541 276.0643 354.6898 00.37801485 7309 ____________________________________________________________________ These 2-Line ...Continue Reading

[list_settings.list_name] Current TLEs

February 15th 2011 PST

HST 1 20580U 90037B 11044.60022698 .00000634 00000-0 35542-4 0 7137 2 20580 028.4699 103.6369 0003389 241.1080 118.9215 15.01160317941064 ISS (ZARYA) 1 25544U 98067A 11045.39499378 .00014637 00000-0 11209-3 0 8214 2 25544 051.6455 070.5899 0004155 309.0309 182.6471 15.72389811701579 CXO 1 25867U 99040B 11044.66666667 -.00000496 00000-0 00000+0 0 5714 2 25867 068.5080 039.8278 8488541 276.0643 354.6898 00.37801485 7309 ____________________________________________________________________ These 2-Line ...Continue Reading

[list_settings.list_name] Current TLEs

February 14th 2011 PST

HST 1 20580U 90037B 11041.60843290 .00000640 00000-0 35982-4 0 7127 2 20580 028.4694 123.1746 0003504 211.1712 148.8749 15.01157440940610 ISS (ZARYA) 1 25544U 98067A 11044.37206895 .00014159 00000-0 10874-3 0 8149 2 25544 051.6450 075.8312 0004200 304.8650 152.5977 15.72357389701410 CXO 1 25867U 99040B 11044.66666667 -.00000496 00000-0 00000+0 0 5714 2 25867 068.5080 039.8278 8488541 276.0643 354.6898 00.37801485 7309 ____________________________________________________________________ These 2-Line ...Continue Reading

[list_settings.list_name] Current TLEs

February 13th 2011 PST

HST 1 20580U 90037B 11041.60843290 .00000640 00000-0 35982-4 0 7127 2 20580 028.4694 123.1746 0003504 211.1712 148.8749 15.01157440940610 ISS (ZARYA) 1 25544U 98067A 11043.35770128 .00012570 00000-0 97191-4 0 8087 2 25544 051.6453 081.0270 0004324 302.3491 169.4846 15.72325157701250 CXO 1 25867U 99040B 11042.04166667 -.00000539 00000-0 00000+0 0 5694 2 25867 068.4978 039.9727 8486704 276.0874 357.2035 00.37803960 7299 ____________________________________________________________________ These 2-Line ...Continue Reading

[list_settings.list_name] Current TLEs

February 12th 2011 PST

HST 1 20580U 90037B 11041.60843290 .00000640 00000-0 35982-4 0 7127 2 20580 028.4694 123.1746 0003504 211.1712 148.8749 15.01157440940610 ISS (ZARYA) 1 25544U 98067A 11042.40620627 .00065760 00000-0 48638-3 0 8024 2 25544 051.6440 085.8998 0004217 288.1282 194.3117 15.72311137701100 CXO 1 25867U 99040B 11042.04166667 -.00000539 00000-0 00000+0 0 5694 2 25867 068.4978 039.9727 8486704 276.0874 357.2035 00.37803960 7299 ____________________________________________________________________ These 2-Line ...Continue Reading

[list_settings.list_name] Current TLEs

February 11th 2011 PST

HST 1 20580U 90037B 11038.68311823 .00000575 00000-0 30981-4 0 7113 2 20580 028.4693 142.2753 0003551 182.0073 178.0606 15.01154324940173 ISS (ZARYA) 1 25544U 98067A 11041.39873843 .00112681 00000-0 82639-3 0 7990 2 25544 051.6420 091.0601 0004252 289.8469 246.2494 15.72287611700947 CXO 1 25867U 99040B 11042.04166667 -.00000539 00000-0 00000+0 0 5694 2 25867 068.4978 039.9727 8486704 276.0874 357.2035 00.37803960 7299 ____________________________________________________________________ These 2-Line ...Continue Reading

[list_settings.list_name] Current TLEs

February 10th 2011 PST

HST 1 20580U 90037B 11038.68311823 .00000575 00000-0 30981-4 0 7113 2 20580 028.4693 142.2753 0003551 182.0073 178.0606 15.01154324940173 ISS (ZARYA) 1 25544U 98067A 11040.37016038 .00015188 00000-0 11544-3 0 7959 2 25544 051.6452 096.3302 0003478 301.2586 168.4742 15.72534628700782 CXO 1 25867U 99040B 11039.41666667 -.00000540 00000-0 00000+0 0 5687 2 25867 068.4791 040.1472 8487590 276.0809 359.7878 00.37808584 7283 ____________________________________________________________________ These 2-Line ...Continue Reading

[list_settings.list_name] Current TLEs

February 9th 2011 PST

HST 1 20580U 90037B 11038.68311823 .00000575 00000-0 30981-4 0 7113 2 20580 028.4693 142.2753 0003551 182.0073 178.0606 15.01154324940173 ISS (ZARYA) 1 25544U 98067A 11039.41308204 .00018668 00000-0 14092-3 0 7891 2 25544 051.6449 101.2301 0003280 292.5042 155.5106 15.72513653700633 CXO 1 25867U 99040B 11039.41666667 -.00000540 00000-0 00000+0 0 5687 2 25867 068.4791 040.1472 8487590 276.0809 359.7878 00.37808584 7283 ____________________________________________________________________ These 2-Line ...Continue Reading

[list_settings.list_name] Current TLEs

February 8th 2011 PST

HST 1 20580U 90037B 11036.75506589 .00000453 00000-0 21726-4 0 7105 2 20580 028.4690 154.8649 0003533 162.2569 197.8189 15.01152050939888 ISS (ZARYA) 1 25544U 98067A 11038.40090418 .00018244 00000-0 13806-3 0 7841 2 25544 051.6463 106.4141 0003447 289.7785 184.4633 15.72474161700473 CXO 1 25867U 99040B 11036.75000000 -.00000563 00000-0 00000+0 0 5678 2 25867 068.4577 040.3327 8486785 276.0547 356.7655 00.37808783 7270 ____________________________________________________________________ These 2-Line ...Continue Reading

[list_settings.list_name] Current TLEs

February 7th 2011 PST

HST 1 20580U 90037B 11036.75506589 .00000453 00000-0 21726-4 0 7105 2 20580 028.4690 154.8649 0003533 162.2569 197.8189 15.01152050939888 ISS (ZARYA) 1 25544U 98067A 11037.38113007 .00021872 00000-0 16476-3 0 7798 2 25544 051.6453 111.6415 0003382 284.2008 173.3779 15.72442169700314 CXO 1 25867U 99040B 11036.75000000 -.00000563 00000-0 00000+0 0 5678 2 25867 068.4577 040.3327 8486785 276.0547 356.7655 00.37808783 7270 ____________________________________________________________________ These 2-Line ...Continue Reading
  • This mailing list is a public mailing list - anyone may join or leave, at any time.
  • This mailing list is announce-only.

International Space Station (ISS) / Hubble Space Telescope (HST) / Chandra X-Ray Observatory Orbital Data via EMAIL

Privacy Policy:

Private list